EW1433 Weather Reports


Display with metric or nautical units.
time (UTC)temp
F
wind
direction
speed
MPH
gust
MPH
rain 1hr
in
rain 24hr
in
rain mn
in
humidity
%
barometer
mb
20181121064059 58 165 1.0 3.0 0.00 0.00 0.00 77 1014.9
20181121063553 58 178 1.0 3.0 0.00 0.00 0.00 77 1014.9
20181121063055 57 200 1.0 3.0 0.00 0.00 0.00 77 1014.9
20181121062554 57 141 1.0 3.0 0.00 0.00 0.00 76 1014.9
20181121062054 57 176 2.0 3.0 0.00 0.00 0.00 76 1014.9
20181121061553 56 169 0.0 3.0 0.00 0.00 0.00 75 1014.9
20181121061053 56 169 1.0 3.0 0.00 0.00 0.00 74 1014.8
20181121060553 56 169 1.0 3.0 0.00 0.00 0.00 74 1014.9
20181121060053 56 166 0.0 0.0 0.00 0.00 0.00 74 1014.8
20181121055552 55 35 0.0 0.0 0.00 0.00 0.00 74 1014.8
20181121055054 55 30 0.0 0.0 0.00 0.00 0.00 74 1014.9
20181121054552 55 21 0.0 0.0 0.00 0.00 0.00 75 1014.8
20181121054052 54 31 0.0 0.0 0.00 0.00 0.00 75 1014.8
20181121053552 53 31 0.0 0.0 0.00 0.00 0.00 75 1014.8
20181121053053 53 34 0.0 0.0 0.00 0.00 0.00 74 1014.9
20181121052553 53 34 0.0 1.0 0.00 0.00 0.00 74 1014.9
20181121052058 53 34 0.0 1.0 0.00 0.00 0.00 74 1014.9
20181121051553 53 34 0.0 1.0 0.00 0.00 0.00 73 1014.9
20181121051051 54 34 0.0 0.0 0.00 0.00 0.00 72 1014.9
20181121050600 54 34 0.0 2.0 0.00 0.00 0.00 71 1014.9
20181121050052 55 34 0.0 2.0 0.00 0.00 0.00 71 1014.9
20181121045553 55 31 0.0 0.0 0.00 0.00 0.00 69 1014.9
20181121045058 56 31 0.0 0.0 0.00 0.00 0.00 69 1014.9
20181121044605 56 31 0.0 0.0 0.00 0.00 0.00 68 1015.0
20181121044102 56 31 0.0 0.0 0.00 0.00 0.00 68 1014.9
20181121043554 56 31 0.0 1.0 0.00 0.00 0.00 67 1014.8
20181121043055 56 31 0.0 0.0 0.00 0.00 0.00 67 1014.8
20181121042605 56 30 0.0 0.0 0.00 0.00 0.00 68 1014.8
20181121042051 55 30 0.0 1.0 0.00 0.00 0.00 69 1014.8
20181121041553 55 30 0.0 1.0 0.00 0.00 0.00 70 1014.8
20181121041051 54 30 0.0 1.0 0.00 0.00 0.00 71 1014.8
20181121040555 54 30 0.0 1.0 0.00 0.00 0.00 69 1014.7
20181121040057 55 30 0.0 3.0 0.00 0.00 0.00 66 1014.6
20181121035554 56 30 0.0 3.0 0.00 0.00 0.00 66 1014.6
20181121035101 56 158 0.0 0.0 0.00 0.00 0.00 66 1014.6
20181121034607 55 158 0.0 0.0 0.00 0.00 0.00 66 1014.5
20181121034051 56 158 0.0 0.0 0.00 0.00 0.00 65 1014.5
20181121033557 57 158 0.0 0.0 0.00 0.00 0.00 64 1014.4
20181121033055 56 158 0.0 0.0 0.00 0.00 0.00 65 1014.4
20181121032555 56 158 0.0 0.0 0.00 0.00 0.00 65 1014.2
20181121032053 56 158 0.0 0.0 0.00 0.00 0.00 68 1014.3
20181121031553 55 158 0.0 1.0 0.00 0.00 0.00 68 1014.2
20181121031049 55 158 0.0 1.0 0.00 0.00 0.00 69 1014.1
20181121030554 54 158 0.0 1.0 0.00 0.00 0.00 70 1014.1
20181121030049 54 158 0.0 1.0 0.00 0.00 0.00 70 1014.1
20181121025549 54 158 0.0 1.0 0.00 0.00 0.00 71 1014.2
20181121025059 54 158 0.0 1.0 0.00 0.00 0.00 72 1014.1
20181121024550 53 158 0.0 0.0 0.00 0.00 0.00 74 1014.1
20181121024051 52 158 0.0 0.0 0.00 0.00 0.00 74 1014.1
20181121023549 52 158 0.0 1.0 0.00 0.00 0.00 74 1014.1
20181121023051 52 158 0.0 1.0 0.00 0.00 0.00 74 1014.2
20181121022549 52 158 0.0 1.0 0.00 0.00 0.00 73 1014.2
20181121022056 53 158 0.0 2.0 0.00 0.00 0.00 73 1014.2
20181121021550 53 158 1.0 2.0 0.00 0.00 0.00 73 1014.2
20181121021055 53 169 0.0 0.0 0.00 0.00 0.00 73 1014.1
20181121020553 52 169 0.0 0.0 0.00 0.00 0.00 73 1014.1
20181121020049 53 169 0.0 0.0 0.00 0.00 0.00 73 1014.0
20181121015550 53 169 0.0 0.0 0.00 0.00 0.00 72 1014.0
20181121015049 53 169 0.0 0.0 0.00 0.00 0.00 72 1013.9
20181121014546 53 169 0.0 0.0 0.00 0.00 0.00 72 1014.0
20181121014048 54 169 0.0 2.0 0.00 0.00 0.00 70 1014.0
20181121013555 54 169 1.0 2.0 0.00 0.00 0.00 71 1014.0
20181121013046 55 288 0.0 2.0 0.00 0.00 0.00 70 1013.9
20181121012545 55 288 1.0 2.0 0.00 0.00 0.00 69 1014.0
20181121012052 55 288 0.0 0.0 0.00 0.00 0.00 69 1014.0
20181121011551 56 288 0.0 0.0 0.00 0.00 0.00 68 1014.0
20181121011047 56 288 0.0 0.0 0.00 0.00 0.00 67 1013.9
20181121010545 56 288 0.0 0.0 0.00 0.00 0.00 66 1013.9
20181121010047 57 288 0.0 0.0 0.00 0.00 0.00 65 1013.9
20181121005547 57 288 0.0 0.0 0.00 0.00 0.00 64 1013.9
20181121005046 58 288 0.0 0.0 0.00 0.00 0.00 61 1013.8
20181121004554 59 288 0.0 0.0 0.00 0.00 0.00 60 1013.8
20181121004047 59 288 0.0 0.0 0.00 0.00 0.00 60 1013.8
20181121003548 59 288 0.0 0.0 0.00 0.00 0.00 59 1013.8
20181121003046 60 288 0.0 0.0 0.00 0.00 0.00 59 1013.8
20181121002545 60 288 0.0 0.0 0.00 0.00 0.00 57 1013.8
20181121002047 61 288 0.0 1.0 0.00 0.00 0.00 57 1013.8
20181121001545 61 288 0.0 1.0 0.00 0.00 0.00 56 1013.8
20181121001046 61 288 0.0 1.0 0.00 0.00 0.00 55 1013.8
20181121000557 62 288 0.0 1.0 0.00 0.00 0.00 54 1013.7
20181121000046 62 288 0.0 1.0 0.00 0.00 0.00 53 1013.6
20181120235545 63 288 0.0 2.0 0.00 0.00 0.00 52 1013.6
20181120235046 63 275 1.0 2.0 0.00 0.00 0.00 51 1013.7
20181120234545 64 275 1.0 3.0 0.00 0.00 0.00 52 1013.6
20181120234045 64 298 1.0 3.0 0.00 0.00 0.00 50 1013.6
20181120233545 64 307 1.0 2.0 0.00 0.00 0.00 50 1013.7
20181120233044 65 307 0.0 3.0 0.00 0.00 0.00 50 1013.7
20181120232544 65 307 2.0 5.0 0.00 0.00 0.00 49 1013.8
20181120232044 65 321 2.0 5.0 0.00 0.00 0.00 49 1013.8
20181120231553 65 285 2.0 3.0 0.00 0.00 0.00 49 1013.7
20181120231043 65 298 1.0 3.0 0.00 0.00 0.00 50 1013.8
20181120230545 65 303 2.0 3.0 0.00 0.00 0.00 49 1013.8
20181120230045 65 303 1.0 3.0 0.00 0.00 0.00 49 1013.8
20181120225558 66 296 2.0 3.0 0.00 0.00 0.00 47 1013.9
20181120225045 66 21 1.0 5.0 0.00 0.00 0.00 46 1013.9
20181120224545 66 303 2.0 5.0 0.00 0.00 0.00 46 1014.0
20181120224044 66 289 2.0 3.0 0.00 0.00 0.00 46 1014.0
20181120223544 66 293 2.0 3.0 0.00 0.00 0.00 46 1013.9
20181120223043 66 350 2.0 3.0 0.00 0.00 0.00 46 1014.0
20181120222542 66 275 2.0 2.0 0.00 0.00 0.00 46 1014.0
20181120222044 66 264 1.0 2.0 0.00 0.00 0.00 46 1014.1
20181120221556 66 264 1.0 2.0 0.00 0.00 0.00 47 1014.1
20181120221043 66 264 1.0 3.0 0.00 0.00 0.00 46 1014.0
20181120220543 66 240 2.0 3.0 0.00 0.00 0.00 45 1014.1
20181120220043 66 321 1.0 3.0 0.00 0.00 0.00 45 1014.2
20181120215542 66 265 0.0 2.0 0.00 0.00 0.00 46 1014.2
20181120215042 66 265 0.0 3.0 0.00 0.00 0.00 46 1014.2
20181120214553 66 265 1.0 3.0 0.00 0.00 0.00 47 1014.3
20181120214042 65 323 1.0 2.0 0.00 0.00 0.00 46 1014.3
20181120213542 65 327 1.0 3.0 0.00 0.00 0.00 46 1014.3
20181120213041 66 336 2.0 3.0 0.00 0.00 0.00 46 1014.2
20181120212541 65 244 0.0 3.0 0.00 0.00 0.00 47 1014.4
20181120212040 65 244 1.0 3.0 0.00 0.00 0.00 46 1014.5
20181120211543 65 0 1.0 3.0 0.00 0.00 0.00 47 1014.4
20181120211039 66 0 1.0 3.0 0.00 0.00 0.00 46 1014.4
20181120210539 66 23 1.0 3.0 0.00 0.00 0.00 45 1014.5
20181120210041 65 27 0.0 3.0 0.00 0.00 0.00 45 1014.6
20181120205540 66 327 2.0 3.0 0.00 0.00 0.00 45 1014.6
20181120205039 66 305 1.0 3.0 0.00 0.00 0.00 47 1014.7
20181120204550 65 282 1.0 4.0 0.00 0.00 0.00 47 1014.7
20181120204040 65 283 1.0 4.0 0.00 0.00 0.00 46 1014.8
20181120203551 64 45 1.0 2.0 0.00 0.00 0.00 49 1014.9
20181120203039 64 250 1.0 3.0 0.00 0.00 0.00 49 1015.0
20181120202539 64 0 1.0 3.0 0.00 0.00 0.00 47 1014.9
20181120202038 64 66 1.0 3.0 0.00 0.00 0.00 49 1015.1
20181120201539 64 31 1.0 3.0 0.00 0.00 0.00 48 1015.1
20181120201039 64 31 1.0 3.0 0.00 0.00 0.00 48 1015.2
20181120200550 64 254 1.0 2.0 0.00 0.00 0.00 49 1015.2
20181120200038 63 289 1.0 3.0 0.00 0.00 0.00 49 1015.3
20181120195541 64 0 2.0 3.0 0.00 0.00 0.00 49 1015.3
20181120195039 62 327 1.0 4.0 0.00 0.00 0.00 52 1015.3
20181120194540 62 327 1.0 3.0 0.00 0.00 0.00 51 1015.4
20181120194039 63 305 2.0 3.0 0.00 0.00 0.00 50 1015.5
20181120193538 62 303 1.0 2.0 0.00 0.00 0.00 52 1015.4
20181120193039 62 303 1.0 2.0 0.00 0.00 0.00 50 1015.5
20181120192538 62 16 1.0 2.0 0.00 0.00 0.00 52 1015.6
20181120192038 62 296 1.0 3.0 0.00 0.00 0.00 51 1015.7
20181120191549 61 330 1.0 3.0 0.00 0.00 0.00 52 1015.7
20181120191039 61 321 1.0 3.0 0.00 0.00 0.00 53 1015.8
20181120190539 61 30 1.0 2.0 0.00 0.00 0.00 53 1015.8
20181120190040 60 324 1.0 2.0 0.00 0.00 0.00 54 1015.9
20181120185538 60 324 1.0 2.0 0.00 0.00 0.00 53 1015.9
20181120185039 60 0 0.0 0.0 0.00 0.00 0.00 56 1015.9
20181120184537 60 0 0.0 0.0 0.00 0.00 0.00 55 1015.9
20181120184039 60 0 0.0 2.0 0.00 0.00 0.00 56 1015.9
20181120183538 60 45 0.0 2.0 0.00 0.00 0.00 56 1015.9
20181120183038 59 45 0.0 2.0 0.00 0.00 0.00 57 1016.0
20181120182538 59 45 0.0 2.0 0.00 0.00 0.00 57 1016.1
20181120182038 59 49 1.0 3.0 0.00 0.00 0.00 59 1016.1
20181120181539 58 49 1.0 3.0 0.00 0.00 0.00 58 1016.0
20181120181037 58 49 0.0 0.0 0.00 0.00 0.00 59 1016.1
20181120180537 57 54 0.0 1.0 0.00 0.00 0.00 61 1016.1
20181120180036 57 54 0.0 1.0 0.00 0.00 0.00 60 1016.2
20181120175542 57 75 0.0 0.0 0.00 0.00 0.00 60 1016.1
20181120175032 56 75 0.0 0.0 0.00 0.00 0.00 62 1016.1
20181120174547 56 75 0.0 0.0 0.00 0.00 0.00 61 1016.1
20181120174033 56 75 0.0 0.0 0.00 0.00 0.00 62 1016.1
20181120173533 56 75 0.0 0.0 0.00 0.00 0.00 62 1016.1
20181120173033 55 75 0.0 0.0 0.00 0.00 0.00 62 1016.1
20181120172537 54 75 0.0 0.0 0.00 0.00 0.00 64 1016.1
20181120172034 53 75 0.0 0.0 0.00 0.00 0.00 66 1016.0
20181120171533 52 75 0.0 0.0 0.00 0.00 0.00 66 1015.9
20181120171032 52 75 0.0 0.0 0.00 0.00 0.00 67 1016.0
20181120170534 51 75 0.0 0.0 0.00 0.00 0.00 68 1016.0
20181120170035 50 75 0.0 0.0 0.00 0.00 0.00 70 1016.0
20181120165536 49 75 0.0 0.0 0.00 0.00 0.00 69 1016.0
20181120165032 49 75 0.0 0.0 0.00 0.00 0.00 70 1016.0
20181120164543 48 75 0.0 0.0 0.00 0.00 0.00 71 1016.0
20181120164036 47 75 0.0 0.0 0.00 0.00 0.00 73 1016.1
20181120163534 47 75 0.0 0.0 0.00 0.00 0.00 73 1015.9
20181120163031 46 75 0.0 0.0 0.00 0.00 0.00 75 1015.9
20181120162538 45 75 0.0 0.0 0.00 0.00 0.00 77 1015.8
20181120162031 44 75 0.0 0.0 0.00 0.00 0.00 79 1015.9
20181120161531 45 75 0.0 0.0 0.00 0.00 0.00 78 1015.8
20181120161032 44 162 0.0 0.0 0.00 0.00 0.00 79 1015.7
20181120160544 44 162 0.0 1.0 0.00 0.00 0.00 79 1015.6
20181120160033 44 162 1.0 1.0 0.00 0.00 0.00 79 1015.6
20181120155536 44 162 0.0 1.0 0.00 0.00 0.00 78 1015.6
20181120155031 43 162 0.0 1.0 0.00 0.00 0.00 79 1015.6
20181120154545 42 162 0.0 1.0 0.00 0.00 0.00 80 1015.4
20181120154031 42 162 1.0 1.0 0.00 0.00 0.00 81 1015.3
20181120153536 41 162 0.0 1.0 0.00 0.00 0.00 81 1015.3
20181120153031 41 162 0.0 1.0 0.00 0.00 0.00 81 1015.3
20181120152532 41 162 0.0 2.0 0.00 0.00 0.00 79 1015.3
20181120152031 42 162 0.0 2.0 0.00 0.00 0.00 78 1015.3
20181120151531 42 162 1.0 2.0 0.00 0.00 0.00 79 1015.2
20181120151031 41 164 1.0 2.0 0.00 0.00 0.00 82 1015.1
20181120150544 40 164 1.0 2.0 0.00 0.00 0.00 81 1015.0
20181120150031 40 164 1.0 3.0 0.00 0.00 0.00 82 1015.0
20181120145531 40 164 1.0 3.0 0.00 0.00 0.00 82 1014.9
20181120145032 40 138 0.0 2.0 0.00 0.00 0.00 81 1014.9
20181120144545 40 138 1.0 2.0 0.00 0.00 0.00 81 1014.8
20181120144030 40 138 0.0 0.0 0.00 0.00 0.00 81 1014.8
20181120143544 40 138 0.0 0.0 0.00 0.00 0.00 81 1014.7
20181120143030 40 138 0.0 1.0 0.00 0.00 0.00 82 1014.7
20181120142530 40 138 0.0 1.0 0.00 0.00 0.00 82 1014.7
20181120142029 40 138 0.0 2.0 0.00 0.00 0.00 83 1014.7
20181120141528 40 138 0.0 2.0 0.00 0.00 0.00 82 1014.6
20181120141031 40 138 1.0 3.0 0.00 0.00 0.00 82 1014.6
20181120140528 40 138 1.0 3.0 0.00 0.00 0.00 82 1014.5
20181120140030 40 157 0.0 0.0 0.00 0.00 0.00 83 1014.4
20181120135540 40 157 0.0 0.0 0.00 0.00 0.00 83 1014.4
20181120135029 40 157 0.0 0.0 0.00 0.00 0.00 83 1014.3
20181120134540 40 157 0.0 0.0 0.00 0.00 0.00 83 1014.2
20181120134027 40 157 0.0 0.0 0.00 0.00 0.00 82 1014.2
20181120133527 40 157 0.0 0.0 0.00 0.00 0.00 82 1014.1
20181120133028 40 157 0.0 0.0 0.00 0.00 0.00 83 1014.0
20181120132527 40 157 0.0 0.0 0.00 0.00 0.00 82 1014.0
20181120132028 40 157 0.0 0.0 0.00 0.00 0.00 83 1014.1
20181120131530 40 157 0.0 0.0 0.00 0.00 0.00 82 1014.0
20181120131028 41 157 0.0 0.0 0.00 0.00 0.00 81 1014.1
20181120130541 40 157 0.0 0.0 0.00 0.00 0.00 83 1014.1
20181120130028 40 157 0.0 0.0 0.00 0.00 0.00 82 1014.1
20181120125527 40 157 0.0 0.0 0.00 0.00 0.00 83 1014.1
20181120125029 40 157 0.0 0.0 0.00 0.00 0.00 83 1014.0
20181120124526 40 157 0.0 0.0 0.00 0.00 0.00 83 1014.1
20181120124029 40 157 0.0 0.0 0.00 0.00 0.00 83 1014.1
20181120123540 40 157 0.0 0.0 0.00 0.00 0.00 82 1014.1
20181120123027 40 157 0.0 0.0 0.00 0.00 0.00 82 1014.2
20181120122527 41 157 0.0 0.0 0.00 0.00 0.00 82 1014.3
20181120122028 41 157 0.0 0.0 0.00 0.00 0.00 82 1014.2
20181120121538 41 157 0.0 0.0 0.00 0.00 0.00 82 1014.2
20181120121025 41 157 0.0 0.0 0.00 0.00 0.00 82 1014.2
20181120120526 41 157 0.0 0.0 0.00 0.00 0.00 82 1014.2
20181120120030 41 157 0.0 0.0 0.00 0.00 0.00 81 1014.2
20181120115526 41 157 0.0 0.0 0.00 0.00 0.00 80 1014.2
20181120115027 41 157 0.0 0.0 0.00 0.00 0.00 81 1014.2
20181120114538 41 157 0.0 0.0 0.00 0.00 0.00 82 1014.2
20181120114025 42 157 0.0 0.0 0.00 0.00 0.00 84 1014.2
20181120113526 42 157 0.0 0.0 0.00 0.00 0.00 83 1014.3
20181120113025 41 157 0.0 0.0 0.00 0.00 0.00 83 1014.3
20181120112538 41 157 0.0 0.0 0.00 0.00 0.00 82 1014.3
20181120112027 42 157 0.0 0.0 0.00 0.00 0.00 82 1014.4
20181120111525 42 157 0.0 0.0 0.00 0.00 0.00 82 1014.4
20181120111026 41 157 0.0 0.0 0.00 0.00 0.00 83 1014.5
20181120110524 41 157 0.0 0.0 0.00 0.00 0.00 83 1014.5
20181120110025 42 157 0.0 0.0 0.00 0.00 0.00 82 1014.5
20181120105523 42 157 0.0 0.0 0.00 0.00 0.00 82 1014.5
20181120105024 42 157 0.0 0.0 0.00 0.00 0.00 82 1014.5
20181120104523 42 157 0.0 0.0 0.00 0.00 0.00 81 1014.6
20181120104024 42 157 0.0 0.0 0.00 0.00 0.00 81 1014.7
20181120103526 42 157 0.0 0.0 0.00 0.00 0.00 80 1014.6
20181120103022 42 157 0.0 0.0 0.00 0.00 0.00 80 1014.7
20181120102525 42 157 0.0 0.0 0.00 0.00 0.00 80 1014.8
20181120102023 42 157 0.0 0.0 0.00 0.00 0.00 79 1014.8
20181120101523 43 157 0.0 0.0 0.00 0.00 0.00 78 1014.8
20181120101023 42 157 0.0 0.0 0.00 0.00 0.00 79 1014.9
20181120100537 43 157 0.0 0.0 0.00 0.00 0.00 78 1015.0
20181120100023 43 157 0.0 0.0 0.00 0.00 0.00 77 1015.0
20181120095523 43 157 0.0 0.0 0.00 0.00 0.00 79 1015.0
20181120095024 42 157 0.0 0.0 0.00 0.00 0.00 79 1015.1
20181120094522 43 157 0.0 0.0 0.00 0.00 0.00 79 1015.1
20181120094023 42 157 0.0 0.0 0.00 0.00 0.00 80 1015.1
20181120093534 42 157 0.0 0.0 0.00 0.00 0.00 81 1015.1
20181120093021 42 157 0.0 0.0 0.00 0.00 0.00 80 1015.2
20181120092523 42 157 0.0 0.0 0.00 0.00 0.00 80 1015.3
20181120092022 42 157 0.0 0.0 0.00 0.00 0.00 80 1015.3
20181120091523 42 157 0.0 0.0 0.00 0.00 0.00 79 1015.3
20181120091027 42 157 0.0 0.0 0.00 0.00 0.00 79 1015.3
20181120090522 42 157 0.0 0.0 0.00 0.00 0.00 79 1015.3
20181120090025 43 157 0.0 0.0 0.00 0.00 0.00 79 1015.3
20181120085523 42 157 0.0 0.0 0.00 0.00 0.00 80 1015.3
20181120085023 42 157 0.0 0.0 0.00 0.00 0.00 79 1015.3
20181120084520 43 157 0.0 0.0 0.00 0.00 0.00 78 1015.2
20181120084022 43 157 0.0 0.0 0.00 0.00 0.00 77 1015.3
20181120083534 43 157 0.0 0.0 0.00 0.00 0.00 77 1015.2
20181120083022 43 157 0.0 0.0 0.00 0.00 0.00 77 1015.2
20181120082523 44 157 0.0 0.0 0.00 0.00 0.00 77 1015.2
20181120082022 44 157 0.0 0.0 0.00 0.00 0.00 77 1015.2
20181120081521 43 157 0.0 0.0 0.00 0.00 0.00 78 1015.2
20181120081021 43 157 0.0 0.0 0.00 0.00 0.00 78 1015.1
20181120080520 44 157 0.0 0.0 0.00 0.00 0.00 78 1015.2
20181120080021 44 157 0.0 0.0 0.00 0.00 0.00 78 1015.1
20181120075520 44 158 0.0 0.0 0.00 0.00 0.00 79 1015.2
20181120075022 43 157 0.0 0.0 0.00 0.00 0.00 79 1015.2
20181120074522 43 157 0.0 0.0 0.00 0.00 0.00 80 1015.3
20181120074020 43 157 0.0 0.0 0.00 0.00 0.00 79 1015.3
20181120073519 43 157 0.0 0.0 0.00 0.00 0.00 79 1015.3
20181120073021 44 157 0.0 0.0 0.00 0.00 0.00 78 1015.2
20181120072518 44 157 0.0 0.0 0.00 0.00 0.00 79 1015.3
20181120072018 44 157 0.0 0.0 0.00 0.00 0.00 79 1015.3
20181120071518 44 157 0.0 0.0 0.00 0.00 0.00 77 1015.2
20181120071021 45 157 0.0 0.0 0.00 0.00 0.00 76 1015.2
20181120070533 45 157 0.0 0.0 0.00 0.00 0.00 74 1015.2
20181120070020 45 157 0.0 0.0 0.00 0.00 0.00 76 1015.3
20181120065522 44 157 0.0 0.0 0.00 0.00 0.00 77 1015.3
20181120065019 45 157 0.0 0.0 0.00 0.00 0.00 77 1015.3
20181120064520 45 157 0.0 0.0 0.00 0.00 0.00 76 1015.3